Saint Bonnet de Bellac- Haute Vienne - France
Donnes mto: mercredi, 07/03/2012
Date Horaire Temp. E. Hum. E. P.atmo. Pluie Vent Direction Direction Ensoleilleme Solaire P. de rose Temp au vent Rafales
07/03/2012 00:00 -0,1 C 87 % 1026,2 hPa 0,0 mm 0,0 km/h (0 Bft) N 360 0 min 0 W/m -2,0 C -0,1 C 0,0 km/h (0 Bft)
07/03/2012 00:10 -0,2 C 87 % 1026,2 hPa 0,0 mm 0,0 km/h (0 Bft) S-SE 157 0 min 0 W/m -2,1 C -0,2 C 0,0 km/h (0 Bft)
07/03/2012 00:20 -0,5 C 87 % 1026,3 hPa 0,0 mm 0,0 km/h (0 Bft) S-SE 157 0 min 0 W/m -2,4 C -0,5 C 0,0 km/h (0 Bft)
07/03/2012 00:30 -0,8 C 86 % 1026,4 hPa 0,0 mm 0,0 km/h (0 Bft) S-SE 157 0 min 0 W/m -2,8 C -0,8 C 0,0 km/h (0 Bft)
07/03/2012 00:40 -1,1 C 86 % 1026,5 hPa 0,0 mm 0,0 km/h (0 Bft) S-SE 157 0 min 0 W/m -3,1 C -1,1 C 0,0 km/h (0 Bft)
07/03/2012 00:50 -1,1 C 87 % 1026,6 hPa 0,0 mm 0,0 km/h (0 Bft) S-SE 157 0 min 0 W/m -3,0 C -1,1 C 0,0 km/h (0 Bft)
07/03/2012 01:00 -1,2 C 87 % 1026,7 hPa 0,0 mm 0,0 km/h (0 Bft) S-SO 202 0 min 0 W/m -3,1 C -1,2 C 0,0 km/h (0 Bft)
07/03/2012 01:10 -1,2 C 87 % 1026,7 hPa 0,0 mm 0,0 km/h (0 Bft) S-SO 202 0 min 0 W/m -3,1 C -1,2 C 0,0 km/h (0 Bft)
07/03/2012 01:20 -1,4 C 87 % 1026,4 hPa 0,0 mm 0,0 km/h (0 Bft) S-SO 202 0 min 0 W/m -3,3 C -1,4 C 0,0 km/h (0 Bft)
07/03/2012 01:30 -1,6 C 87 % 1026,5 hPa 0,0 mm 0,0 km/h (0 Bft) S-SO 202 0 min 0 W/m -3,5 C -1,6 C 0,0 km/h (0 Bft)
07/03/2012 01:40 -1,7 C 87 % 1026,4 hPa 0,0 mm 0,0 km/h (0 Bft) S-SO 202 0 min 0 W/m -3,6 C -1,7 C 0,0 km/h (0 Bft)
07/03/2012 01:50 -1,9 C 87 % 1026,6 hPa 0,0 mm 0,0 km/h (0 Bft) S-SO 202 0 min 0 W/m -3,8 C -1,9 C 0,0 km/h (0 Bft)
07/03/2012 02:02 -1,9 C 87 % 1026,8 hPa 0,0 mm 0,0 km/h (0 Bft) N-NE 22 0 min 0 W/m -3,8 C -1,9 C 0,0 km/h (0 Bft)
07/03/2012 02:10 -1,9 C 87 % 1026,8 hPa 0,0 mm 0,0 km/h (0 Bft) N-NE 22 0 min 0 W/m -3,8 C -1,9 C 0,0 km/h (0 Bft)
07/03/2012 02:20 -2,0 C 88 % 1027,0 hPa 0,0 mm 0,0 km/h (0 Bft) N-NE 22 0 min 0 W/m -3,7 C -2,0 C 0,0 km/h (0 Bft)
07/03/2012 02:30 -2,1 C 88 % 1027,0 hPa 0,0 mm 0,0 km/h (0 Bft) N-NE 22 0 min 0 W/m -3,8 C -2,1 C 0,0 km/h (0 Bft)
07/03/2012 02:40 -1,9 C 88 % 1026,9 hPa 0,0 mm 0,0 km/h (0 Bft) N-NE 22 0 min 0 W/m -3,6 C -1,9 C 0,0 km/h (0 Bft)
07/03/2012 02:50 -2,1 C 88 % 1026,8 hPa 0,0 mm 0,0 km/h (0 Bft) NE 45 0 min 0 W/m -3,8 C -2,1 C 0,0 km/h (0 Bft)
07/03/2012 03:00 -2,1 C 88 % 1026,6 hPa 0,0 mm 0,0 km/h (0 Bft) E 90 0 min 0 W/m -3,8 C -2,1 C 0,0 km/h (0 Bft)
07/03/2012 03:10 -2,1 C 88 % 1026,4 hPa 0,0 mm 1,1 km/h (1 Bft) E 90 0 min 0 W/m -3,8 C -2,1 C 4,3 km/h (1 Bft)
07/03/2012 03:20 -1,7 C 88 % 1026,3 hPa 0,0 mm 2,9 km/h (1 Bft) E-SE 112 0 min 0 W/m -3,4 C -1,7 C 3,2 km/h (1 Bft)
07/03/2012 03:30 -1,6 C 89 % 1026,3 hPa 0,0 mm 2,2 km/h (1 Bft) E 90 0 min 0 W/m -3,2 C -1,6 C 4,0 km/h (1 Bft)
07/03/2012 03:40 -1,5 C 89 % 1026,2 hPa 0,0 mm 0,4 km/h (0 Bft) E-SE 112 0 min 0 W/m -3,1 C -1,5 C 0,4 km/h (0 Bft)
07/03/2012 03:50 -1,5 C 89 % 1026,0 hPa 0,0 mm 0,0 km/h (0 Bft) SE 135 0 min 0 W/m -3,1 C -1,5 C 0,0 km/h (0 Bft)
07/03/2012 04:00 -1,6 C 89 % 1026,0 hPa 0,0 mm 0,0 km/h (0 Bft) SO 225 0 min 0 W/m -3,2 C -1,6 C 0,0 km/h (0 Bft)
07/03/2012 04:10 -1,9 C 88 % 1025,9 hPa 0,0 mm 0,0 km/h (0 Bft) E-NE 67 0 min 0 W/m -3,6 C -1,9 C 0,0 km/h (0 Bft)
07/03/2012 04:20 -2,1 C 89 % 1025,9 hPa 0,0 mm 0,0 km/h (0 Bft) E-NE 67 0 min 0 W/m -3,7 C -2,1 C 0,0 km/h (0 Bft)
07/03/2012 04:30 -2,3 C 89 % 1026,0 hPa 0,0 mm 0,0 km/h (0 Bft) E-NE 67 0 min 0 W/m -3,9 C -2,3 C 0,0 km/h (0 Bft)
07/03/2012 04:40 -2,6 C 89 % 1026,0 hPa 0,0 mm 0,0 km/h (0 Bft) E-NE 67 0 min 0 W/m -4,2 C -2,6 C 0,0 km/h (0 Bft)
07/03/2012 04:50 -2,7 C 90 % 1026,0 hPa 0,0 mm 0,0 km/h (0 Bft) E-NE 67 0 min 0 W/m -4,1 C -2,7 C 0,0 km/h (0 Bft)
07/03/2012 05:00 -2,9 C 89 % 1026,2 hPa 0,0 mm 0,0 km/h (0 Bft) E-NE 67 0 min 0 W/m -4,5 C -2,9 C 0,0 km/h (0 Bft)
07/03/2012 05:10 -2,9 C 90 % 1026,3 hPa 0,0 mm 0,0 km/h (0 Bft) E-NE 67 0 min 0 W/m -4,3 C -2,9 C 0,0 km/h (0 Bft)
07/03/2012 05:20 -2,8 C 90 % 1026,3 hPa 0,0 mm 0,0 km/h (0 Bft) E 90 0 min 0 W/m -4,2 C -2,8 C 0,0 km/h (0 Bft)
07/03/2012 05:30 -2,6 C 90 % 1026,4 hPa 0,0 mm 0,0 km/h (0 Bft) E-SE 112 0 min 0 W/m -4,0 C -2,6 C 0,0 km/h (0 Bft)
07/03/2012 05:40 -2,6 C 90 % 1026,5 hPa 0,0 mm 0,0 km/h (0 Bft) E-SE 112 0 min 0 W/m -4,0 C -2,6 C 0,0 km/h (0 Bft)
07/03/2012 05:50 -2,6 C 90 % 1026,3 hPa 0,0 mm 0,7 km/h (0 Bft) SE 135 0 min 0 W/m -4,0 C -2,6 C 0,7 km/h (0 Bft)
07/03/2012 06:00 -2,5 C 90 % 1026,1 hPa 0,0 mm 2,9 km/h (1 Bft) E-SE 112 0 min 0 W/m -3,9 C -2,5 C 4,3 km/h (1 Bft)
07/03/2012 06:10 -2,4 C 90 % 1026,2 hPa 0,0 mm 0,0 km/h (0 Bft) SE 135 0 min 0 W/m -3,8 C -2,4 C 3,2 km/h (1 Bft)
07/03/2012 06:20 -2,2 C 90 % 1026,2 hPa 0,0 mm 1,4 km/h (1 Bft) S-SE 157 0 min 0 W/m -3,6 C -2,2 C 3,6 km/h (1 Bft)
07/03/2012 06:30 -2,1 C 90 % 1026,3 hPa 0,0 mm 0,0 km/h (0 Bft) S-SO 202 0 min 0 W/m -3,5 C -2,1 C 0,0 km/h (0 Bft)
07/03/2012 06:40 -2,2 C 90 % 1026,3 hPa 0,0 mm 0,0 km/h (0 Bft) SE 135 0 min 0 W/m -3,6 C -2,2 C 0,0 km/h (0 Bft)
07/03/2012 06:50 -2,4 C 90 % 1026,5 hPa 0,0 mm 0,0 km/h (0 Bft) SE 135 0 min 0 W/m -3,8 C -2,4 C 0,0 km/h (0 Bft)
07/03/2012 07:00 -2,6 C 90 % 1026,6 hPa 0,0 mm 0,0 km/h (0 Bft) SE 135 0 min 0 W/m -4,0 C -2,6 C 0,0 km/h (0 Bft)
07/03/2012 07:10 -2,8 C 90 % 1026,8 hPa 0,0 mm 0,0 km/h (0 Bft) SE 135 0 min 0 W/m -4,2 C -2,8 C 0,0 km/h (0 Bft)
07/03/2012 07:20 -2,9 C 90 % 1027,0 hPa 0,0 mm 0,0 km/h (0 Bft) SE 135 0 min 0 W/m -4,3 C -2,9 C 0,0 km/h (0 Bft)
07/03/2012 07:30 -3,2 C 90 % 1027,2 hPa 0,0 mm 0,0 km/h (0 Bft) SE 135 0 min 0 W/m -4,6 C -3,2 C 0,0 km/h (0 Bft)
07/03/2012 07:40 -3,4 C 90 % 1027,3 hPa 0,0 mm 0,0 km/h (0 Bft) SE 135 2 min 0 W/m -4,8 C -3,4 C 0,0 km/h (0 Bft)
07/03/2012 07:50 -3,2 C 90 % 1027,2 hPa 0,0 mm 0,0 km/h (0 Bft) SE 135 2 min 0 W/m -4,6 C -3,2 C 0,0 km/h (0 Bft)
07/03/2012 08:00 -3,1 C 90 % 1027,2 hPa 0,0 mm 1,4 km/h (1 Bft) E 90 2 min 0 W/m -4,5 C -3,1 C 4,0 km/h (1 Bft)
07/03/2012 08:10 -2,7 C 91 % 1027,0 hPa 0,0 mm 3,6 km/h (1 Bft) E 90 2 min 0 W/m -4,0 C -2,7 C 6,1 km/h (2 Bft)
07/03/2012 08:20 -2,4 C 91 % 1027,1 hPa 0,0 mm 0,0 km/h (0 Bft) E 90 2 min 0 W/m -3,7 C -2,4 C 0,0 km/h (0 Bft)
07/03/2012 08:30 -1,7 C 91 % 1027,1 hPa 0,0 mm 0,0 km/h (0 Bft) E-SE 112 2 min 0 W/m -3,0 C -1,7 C 0,0 km/h (0 Bft)
07/03/2012 08:40 -1,1 C 91 % 1027,1 hPa 0,0 mm 2,2 km/h (1 Bft) E-SE 112 2 min 0 W/m -2,4 C -1,1 C 4,0 km/h (1 Bft)
07/03/2012 08:50 -0,5 C 91 % 1027,2 hPa 0,0 mm 0,0 km/h (0 Bft) E 90 2 min 0 W/m -1,8 C -0,5 C 0,0 km/h (0 Bft)
07/03/2012 09:00 0,2 C 92 % 1027,3 hPa 0,0 mm 0,0 km/h (0 Bft) E 90 2 min 0 W/m -0,9 C 0,2 C 0,0 km/h (0 Bft)
07/03/2012 09:10 0,9 C 91 % 1027,4 hPa 0,0 mm 0,7 km/h (0 Bft) E 90 2 min 0 W/m -0,4 C 0,9 C 3,6 km/h (1 Bft)
07/03/2012 09:20 1,7 C 92 % 1027,6 hPa 0,0 mm 0,0 km/h (0 Bft) E 90 2 min 0 W/m 0,5 C 1,7 C 0,0 km/h (0 Bft)
07/03/2012 09:30 2,5 C 92 % 1027,6 hPa 0,0 mm 0,0 km/h (0 Bft) E 90 2 min 0 W/m 1,3 C 2,5 C 0,0 km/h (0 Bft)
07/03/2012 09:40 3,3 C 91 % 1027,6 hPa 0,0 mm 0,0 km/h (0 Bft) E 90 2 min 0 W/m 2,0 C 3,3 C 0,0 km/h (0 Bft)
07/03/2012 09:50 3,9 C 90 % 1027,4 hPa 0,0 mm 2,2 km/h (1 Bft) S-SE 157 2 min 0 W/m 2,4 C 3,9 C 4,3 km/h (1 Bft)
07/03/2012 10:00 4,5 C 87 % 1027,3 hPa 0,0 mm 1,4 km/h (1 Bft) S-SO 202 2 min 0 W/m 2,5 C 4,5 C 3,2 km/h (1 Bft)
07/03/2012 10:10 4,9 C 84 % 1027,1 hPa 0,0 mm 0,0 km/h (0 Bft) O-SO 247 2 min 0 W/m 2,4 C 4,9 C 0,0 km/h (0 Bft)
07/03/2012 10:20 5,2 C 80 % 1027,2 hPa 0,0 mm 6,1 km/h (2 Bft) S-SO 202 2 min 0 W/m 2,0 C 3,9 C 7,9 km/h (2 Bft)
07/03/2012 10:30 5,4 C 80 % 1027,3 hPa 0,0 mm 1,8 km/h (1 Bft) O-SO 247 2 min 0 W/m 2,2 C 5,4 C 6,5 km/h (2 Bft)
07/03/2012 10:40 5,8 C 79 % 1027,3 hPa 0,0 mm 1,8 km/h (1 Bft) O-SO 247 2 min 0 W/m 2,4 C 5,8 C 6,5 km/h (2 Bft)
07/03/2012 10:50 6,1 C 76 % 1027,3 hPa 0,0 mm 5,8 km/h (2 Bft) O-SO 247 2 min 0 W/m 2,2 C 5,1 C 9,4 km/h (2 Bft)
07/03/2012 11:00 6,3 C 76 % 1027,4 hPa 0,0 mm 2,9 km/h (1 Bft) S-SO 202 2 min 0 W/m 2,4 C 6,3 C 9,4 km/h (2 Bft)
07/03/2012 11:10 6,3 C 75 % 1027,4 hPa 0,0 mm 1,4 km/h (1 Bft) O-SO 247 2 min 0 W/m 2,2 C 6,3 C 3,6 km/h (1 Bft)
07/03/2012 11:20 6,6 C 75 % 1027,4 hPa 0,0 mm 0,4 km/h (0 Bft) S 180 2 min 0 W/m 2,5 C 6,6 C 3,6 km/h (1 Bft)
07/03/2012 11:30 6,8 C 71 % 1027,3 hPa 0,0 mm 6,1 km/h (2 Bft) SO 225 2 min 0 W/m 1,9 C 5,8 C 6,1 km/h (2 Bft)
07/03/2012 11:40 6,9 C 71 % 1027,3 hPa 0,0 mm 3,2 km/h (1 Bft) O-SO 247 2 min 0 W/m 2,0 C 6,9 C 3,2 km/h (1 Bft)
07/03/2012 11:50 7,4 C 68 % 1027,3 hPa 0,0 mm 7,2 km/h (2 Bft) S-SO 202 2 min 0 W/m 1,9 C 6,1 C 7,2 km/h (2 Bft)
07/03/2012 12:00 7,7 C 67 % 1027,1 hPa 0,0 mm 6,8 km/h (2 Bft) SO 225 2 min 0 W/m 2,0 C 6,6 C 8,6 km/h (2 Bft)
07/03/2012 12:10 8,3 C 66 % 1027,1 hPa 0,0 mm 5,0 km/h (1 Bft) O 270 2 min 0 W/m 2,3 C 7,8 C 9,0 km/h (2 Bft)
07/03/2012 12:20 8,5 C 62 % 1026,9 hPa 0,0 mm 5,4 km/h (2 Bft) S-SO 202 2 min 0 W/m 1,6 C 7,9 C 6,1 km/h (2 Bft)
07/03/2012 12:30 8,3 C 62 % 1026,8 hPa 0,0 mm 6,5 km/h (2 Bft) O-SO 247 2 min 0 W/m 1,5 C 7,4 C 10,1 km/h (2 Bft)
07/03/2012 12:40 8,1 C 61 % 1026,7 hPa 0,0 mm 9,7 km/h (2 Bft) S-SO 202 2 min 0 W/m 1,0 C 6,4 C 13,0 km/h (3 Bft)
07/03/2012 12:50 8,0 C 59 % 1026,4 hPa 0,0 mm 6,5 km/h (2 Bft) SO 225 2 min 0 W/m 0,5 C 7,0 C 7,9 km/h (2 Bft)
07/03/2012 13:00 8,0 C 60 % 1026,2 hPa 0,0 mm 8,3 km/h (2 Bft) S-SO 202 2 min 0 W/m 0,7 C 6,6 C 13,3 km/h (3 Bft)
07/03/2012 13:10 7,9 C 60 % 1026,0 hPa 0,0 mm 4,7 km/h (1 Bft) S-SO 202 2 min 0 W/m 0,6 C 7,5 C 10,1 km/h (2 Bft)
07/03/2012 13:20 7,8 C 62 % 1025,9 hPa 0,0 mm 6,1 km/h (2 Bft) O 270 2 min 0 W/m 1,0 C 6,9 C 13,3 km/h (3 Bft)
07/03/2012 13:30 7,9 C 62 % 1025,8 hPa 0,0 mm 7,2 km/h (2 Bft) SO 225 2 min 0 W/m 1,1 C 6,7 C 7,2 km/h (2 Bft)
07/03/2012 13:40 7,8 C 61 % 1025,8 hPa 0,0 mm 2,9 km/h (1 Bft) SO 225 2 min 0 W/m 0,8 C 7,8 C 6,8 km/h (2 Bft)
07/03/2012 13:50 7,8 C 60 % 1025,8 hPa 0,0 mm 8,6 km/h (2 Bft) SO 225 2 min 0 W/m 0,5 C 6,3 C 12,6 km/h (3 Bft)
07/03/2012 14:00 7,8 C 61 % 1025,5 hPa 0,0 mm 5,0 km/h (1 Bft) SO 225 2 min 0 W/m 0,8 C 7,3 C 8,6 km/h (2 Bft)
07/03/2012 14:10 7,8 C 62 % 1025,4 hPa 0,0 mm 2,2 km/h (1 Bft) S-SO 202 2 min 0 W/m 1,0 C 7,8 C 6,5 km/h (2 Bft)
07/03/2012 14:20 8,3 C 61 % 1025,2 hPa 0,0 mm 4,3 km/h (1 Bft) SO 225 2 min 0 W/m 1,2 C 8,3 C 6,5 km/h (2 Bft)
07/03/2012 14:30 8,6 C 60 % 1024,0 hPa 0,0 mm 7,6 km/h (2 Bft) S-SO 202 2 min 0 W/m 1,3 C 7,5 C 13,3 km/h (3 Bft)
07/03/2012 14:40 8,3 C 58 % 1023,7 hPa 0,0 mm 8,6 km/h (2 Bft) SO 225 2 min 0 W/m 0,5 C 6,9 C 10,8 km/h (2 Bft)
07/03/2012 14:50 8,1 C 57 % 1024,0 hPa 0,0 mm 11,5 km/h (2 Bft) SO 225 2 min 0 W/m 0,1 C 6,1 C 17,6 km/h (3 Bft)
07/03/2012 15:00 8,0 C 57 % 1024,0 hPa 0,0 mm 6,5 km/h (2 Bft) S-SO 202 2 min 0 W/m 0,0 C 7,0 C 9,4 km/h (2 Bft)
07/03/2012 15:10 8,3 C 59 % 1023,8 hPa 0,0 mm 10,4 km/h (2 Bft) O-SO 247 2 min 0 W/m 0,8 C 6,5 C 13,7 km/h (3 Bft)
07/03/2012 15:20 8,8 C 58 % 1023,7 hPa 0,0 mm 13,0 km/h (3 Bft) SO 225 2 min 0 W/m 1,0 C 6,7 C 17,6 km/h (3 Bft)
07/03/2012 15:30 8,9 C 58 % 1023,7 hPa 0,0 mm 7,2 km/h (2 Bft) O-SO 247 2 min 0 W/m 1,1 C 7,9 C 13,0 km/h (3 Bft)
07/03/2012 15:40 8,9 C 57 % 1023,5 hPa 0,0 mm 10,8 km/h (2 Bft) SO 225 2 min 0 W/m 0,9 C 7,2 C 12,2 km/h (2 Bft)
07/03/2012 15:50 8,8 C 59 % 1023,8 hPa 0,0 mm 4,0 km/h (1 Bft) S-SO 202 2 min 0 W/m 1,2 C 8,8 C 8,6 km/h (2 Bft)
07/03/2012 16:00 8,8 C 59 % 1023,8 hPa 0,0 mm 8,6 km/h (2 Bft) O 270 2 min 0 W/m 1,2 C 7,5 C 8,6 km/h (2 Bft)
07/03/2012 16:10 8,6 C 58 % 1023,5 hPa 0,0 mm 10,8 km/h (2 Bft) S-SO 202 2 min 0 W/m 0,8 C 6,8 C 20,9 km/h (4 Bft)
07/03/2012 16:20 8,6 C 59 % 1023,8 hPa 0,0 mm 9,0 km/h (2 Bft) SO 225 2 min 0 W/m 1,0 C 7,2 C 10,8 km/h (2 Bft)
07/03/2012 16:30 8,6 C 58 % 1023,3 hPa 0,0 mm 7,2 km/h (2 Bft) S-SO 202 2 min 0 W/m 0,8 C 7,5 C 11,5 km/h (2 Bft)
07/03/2012 16:40 8,6 C 57 % 1023,1 hPa 0,0 mm 12,6 km/h (3 Bft) SO 225 2 min 0 W/m 0,6 C 6,5 C 16,2 km/h (3 Bft)
07/03/2012 16:50 8,5 C 56 % 1023,1 hPa 0,0 mm 10,4 km/h (2 Bft) SO 225 2 min 0 W/m 0,2 C 6,8 C 14,4 km/h (3 Bft)
07/03/2012 17:00 8,3 C 58 % 1023,2 hPa 0,0 mm 2,5 km/h (1 Bft) O-SO 247 2 min 0 W/m 0,5 C 8,3 C 3,6 km/h (1 Bft)
07/03/2012 17:10 8,1 C 58 % 1023,4 hPa 0,0 mm 9,7 km/h (2 Bft) SO 225 2 min 0 W/m 0,3 C 6,4 C 9,7 km/h (2 Bft)
07/03/2012 17:20 7,9 C 59 % 1023,2 hPa 0,0 mm 6,1 km/h (2 Bft) SO 225 2 min 0 W/m 0,4 C 7,0 C 10,1 km/h (2 Bft)
07/03/2012 17:30 8,0 C 60 % 1023,0 hPa 0,0 mm 7,9 km/h (2 Bft) S-SO 202 2 min 0 W/m 0,7 C 6,7 C 13,7 km/h (3 Bft)
07/03/2012 17:40 7,9 C 62 % 1023,0 hPa 0,0 mm 6,1 km/h (2 Bft) O-SO 247 2 min 0 W/m 1,1 C 7,0 C 6,5 km/h (2 Bft)
07/03/2012 17:50 7,8 C 63 % 1022,7 hPa 0,0 mm 3,6 km/h (1 Bft) SO 225 2 min 0 W/m 1,2 C 7,8 C 6,1 km/h (2 Bft)
07/03/2012 18:00 7,8 C 63 % 1023,1 hPa 0,0 mm 3,2 km/h (1 Bft) SO 225 2 min 0 W/m 1,2 C 7,8 C 9,7 km/h (2 Bft)
07/03/2012 18:10 7,8 C 65 % 1022,8 hPa 0,0 mm 5,4 km/h (2 Bft) O-SO 247 2 min 0 W/m 1,6 C 7,1 C 6,1 km/h (2 Bft)
07/03/2012 18:20 7,6 C 66 % 1023,0 hPa 0,0 mm 9,0 km/h (2 Bft) S-SO 202 2 min 0 W/m 1,7 C 6,0 C 10,1 km/h (2 Bft)
07/03/2012 18:30 7,6 C 66 % 1023,0 hPa 0,0 mm 7,2 km/h (2 Bft) SO 225 2 min 0 W/m 1,7 C 6,4 C 9,7 km/h (2 Bft)
07/03/2012 18:40 7,6 C 68 % 1023,1 hPa 0,0 mm 5,8 km/h (2 Bft) O-SO 247 2 min 0 W/m 2,1 C 6,8 C 9,0 km/h (2 Bft)
07/03/2012 18:50 7,5 C 69 % 1022,8 hPa 0,0 mm 9,4 km/h (2 Bft) SO 225 0 min 0 W/m 2,2 C 5,8 C 11,2 km/h (2 Bft)
07/03/2012 19:00 7,5 C 71 % 1022,6 hPa 0,0 mm 9,0 km/h (2 Bft) SO 225 0 min 0 W/m 2,6 C 5,8 C 14,4 km/h (3 Bft)
07/03/2012 19:10 7,4 C 72 % 1022,4 hPa 0,0 mm 9,4 km/h (2 Bft) S-SO 202 0 min 0 W/m 2,7 C 5,6 C 16,2 km/h (3 Bft)
07/03/2012 19:20 7,3 C 75 % 1022,4 hPa 0,0 mm 5,8 km/h (2 Bft) S-SO 202 0 min 0 W/m 3,2 C 6,4 C 6,5 km/h (2 Bft)
07/03/2012 19:30 7,3 C 75 % 1022,5 hPa 0,0 mm 7,2 km/h (2 Bft) S-SO 202 0 min 0 W/m 3,2 C 6,0 C 10,1 km/h (2 Bft)
07/03/2012 19:40 7,1 C 78 % 1022,5 hPa 0,0 mm 7,6 km/h (2 Bft) SO 225 0 min 0 W/m 3,5 C 5,7 C 7,6 km/h (2 Bft)
07/03/2012 19:50 6,8 C 82 % 1022,4 hPa 0,0 mm 5,8 km/h (2 Bft) O-SO 247 0 min 0 W/m 3,9 C 5,9 C 9,0 km/h (2 Bft)
07/03/2012 20:00 6,4 C 85 % 1022,3 hPa 0,1 mm 10,1 km/h (2 Bft) SO 225 0 min 0 W/m 4,1 C 4,3 C 12,6 km/h (3 Bft)
07/03/2012 20:10 6,1 C 87 % 1022,5 hPa 0,0 mm 8,6 km/h (2 Bft) SO 225 0 min 0 W/m 4,1 C 4,3 C 15,8 km/h (3 Bft)
07/03/2012 20:20 5,9 C 89 % 1022,4 hPa 0,0 mm 7,9 km/h (2 Bft) SO 225 0 min 0 W/m 4,2 C 4,2 C 7,9 km/h (2 Bft)
07/03/2012 20:30 5,8 C 89 % 1022,6 hPa 0,0 mm 9,7 km/h (2 Bft) SO 225 0 min 0 W/m 4,1 C 3,7 C 15,8 km/h (3 Bft)
07/03/2012 20:40 5,8 C 89 % 1022,6 hPa 0,0 mm 6,1 km/h (2 Bft) SO 225 0 min 0 W/m 4,1 C 4,6 C 9,7 km/h (2 Bft)
_ Min-Heure 07:40 16:50 20:00 - 10:10 - - - - 07:40 07:40 10:10
Minimum _ -3,4 C 56 % 1022,3 hPa - 0,0 km/h (0 Bft) - - - - -4,8 C -3,4 C 0,0 km/h (0 Bft)
_ Max-Heure 15:40 09:30 09:40 20:00 15:20 - - 18:40 20:40 20:20 15:50 16:10
Maximum _ 8,9 C 92 % 1027,6 hPa 0,1 mm 13,0 km/h
SO (3 Bft)
- - 2 min 0 W/m 4,2 C 8,8 C 20,9 km/h
S-SO (4 Bft)
Moyenne _ 3,2 C 78 % 1025,6 hPa #0,1 mm 3,6 km/h (1 Bft) SO - #2:14 h 0 W/m -0,6 C 2,6 C 5,5 km/h (2 Bft)
Saint Bonnet de Bellac- Haute Vienne - France